WZZ24K EPGD-EPKK

Flight info

Callsign WZZ24K
Flight time N/A
Altitude 27000
Route IRLUN DCT PENEX N133 POLON DCT KUKAM
Aircraft A20N/M-SDE2E3FGHIRWXY/LB1

Departure

Time N/A
Airport Gdańsk Lech Wałęsa Airport (EPGD)

Arrival

Time 2026-05-04 19:41
Airport Kraków John Paul II International Airport (EPKK)
Time Latitude Longitude Altitude Speed Heading
2026-05-04 19:29 50.54332 19.97224 7033 ft 273 kts 173°
2026-05-04 19:29 50.52470 19.97752 6669 ft 272 kts 172°
2026-05-04 19:30 50.50609 19.98279 6305 ft 270 kts 172°
2026-05-04 19:30 50.48788 19.98795 5986 ft 268 kts 172°
2026-05-04 19:30 50.46937 19.99319 5576 ft 268 kts 173°
2026-05-04 19:30 50.45114 19.99834 5186 ft 267 kts 173°
2026-05-04 19:31 50.43276 20.00354 4797 ft 266 kts 173°
2026-05-04 19:31 50.41461 20.00867 4421 ft 265 kts 173°
2026-05-04 19:31 50.39668 20.01370 4110 ft 262 kts 173°
2026-05-04 19:31 50.37870 20.01875 4000 ft 263 kts 173°
2026-05-04 19:32 50.36075 20.02379 3978 ft 264 kts 173°
2026-05-04 19:32 50.34266 20.02887 3984 ft 263 kts 173°
2026-05-04 19:32 50.32480 20.03391 3991 ft 253 kts 173°
2026-05-04 19:32 50.30814 20.03866 3992 ft 237 kts 174°
2026-05-04 19:33 50.29227 20.04316 3993 ft 228 kts 174°
2026-05-04 19:33 50.27640 20.04756 3996 ft 231 kts 174°
2026-05-04 19:33 50.26074 20.05191 3994 ft 230 kts 174°
2026-05-04 19:33 50.24487 20.05633 3996 ft 229 kts 174°
2026-05-04 19:34 50.22928 20.06068 3992 ft 231 kts 174°
2026-05-04 19:34 50.21332 20.06513 3993 ft 230 kts 174°
2026-05-04 19:34 50.19773 20.06950 3979 ft 230 kts 174°
2026-05-04 19:34 50.18180 20.07394 3982 ft 230 kts 174°
2026-05-04 19:35 50.16610 20.07832 3995 ft 231 kts 174°
2026-05-04 19:35 50.15036 20.08274 3999 ft 222 kts 174°
2026-05-04 19:35 50.13578 20.08517 3994 ft 202 kts 192°
2026-05-04 19:35 50.12316 20.07689 3999 ft 200 kts 223°
2026-05-04 19:36 50.11571 20.05988 3998 ft 183 kts 253°
2026-05-04 19:36 50.11324 20.04124 3987 ft 167 kts 257°
2026-05-04 19:36 50.11104 20.02446 3965 ft 152 kts 256°
2026-05-04 19:36 50.10884 20.00848 3705 ft 150 kts 256°
2026-05-04 19:37 50.10676 19.99355 3704 ft 128 kts 256°
2026-05-04 19:37 50.10499 19.98081 3498 ft 118 kts 256°
2026-05-04 19:37 50.10323 19.96826 3174 ft 118 kts 255°
2026-05-04 19:37 50.10151 19.95606 2954 ft 117 kts 255°
2026-05-04 19:38 50.09976 19.94353 3000 ft 121 kts 255°
2026-05-04 19:38 50.09803 19.93107 2998 ft 119 kts 255°
2026-05-04 19:38 50.09628 19.91836 2921 ft 119 kts 256°
2026-05-04 19:38 50.09458 19.90562 2652 ft 120 kts 256°
2026-05-04 19:39 50.09287 19.89318 2395 ft 118 kts 256°
2026-05-04 19:39 50.09100 19.88063 2122 ft 120 kts 254°
2026-05-04 19:39 50.08899 19.86777 1812 ft 124 kts 255°
2026-05-04 19:39 50.08715 19.85443 1546 ft 129 kts 258°
2026-05-04 19:40 50.08539 19.84083 1303 ft 128 kts 257°
2026-05-04 19:40 50.08342 19.82706 1110 ft 130 kts 257°
2026-05-04 19:40 50.08162 19.81352 967 ft 129 kts 258°
2026-05-04 19:40 50.07981 19.79996 826 ft 128 kts 257°
2026-05-04 19:41 50.07811 19.78702 792 ft 101 kts 258°
2026-05-04 19:41 50.07720 19.78140 789 ft 6 kts 206°
2026-05-04 19:41 50.07560 19.78105 789 ft 23 kts 180°
2026-05-04 19:41 50.07478 19.78131 790 ft 12 kts 115°
2026-05-04 19:42 50.07491 19.78279 790 ft 16 kts 78°
2026-05-04 19:42 50.07516 19.78457 790 ft 18 kts 78°
2026-05-04 19:42 50.07546 19.78669 790 ft 21 kts 77°
2026-05-04 19:42 50.07580 19.78905 790 ft 24 kts 78°
2026-05-04 19:43 50.07614 19.79159 790 ft 25 kts 77°
2026-05-04 19:43 50.07651 19.79428 790 ft 26 kts 78°
2026-05-04 19:43 50.07687 19.79706 790 ft 11 kts 98°
2026-05-04 19:43 50.07673 19.79713 790 ft 9 kts 176°
2026-05-04 19:44 50.07582 19.79722 790 ft 14 kts 170°
2026-05-04 19:44 50.07507 19.79743 790 ft 11 kts 169°
2026-05-04 19:44 50.07424 19.79781 790 ft 14 kts 163°
2026-05-04 19:44 50.07376 19.79856 790 ft 6 kts 72°
2026-05-04 19:45 50.07404 19.79950 790 ft 13 kts 43°
2026-05-04 19:45 50.07494 19.79950 790 ft 12 kts 20°
2026-05-04 19:45 50.07517 19.80034 790 ft 11 kts 75°
2026-05-04 19:45 50.07543 19.80211 790 ft 17 kts 78°
2026-05-04 19:46 50.07507 19.80270 790 ft 8 kts 166°
2026-05-04 19:46 50.07502 19.80271 790 ft 0 kts 166°